Location: Tychy
(50.1330°N, 18.9830°E)
Time: 17:59:38
(UTC+02:00)

ISS - Visible Passes

Search period start: 22 April 2024 00:00
Search period end: 02 May 2024 00:00
Orbit: 412 x 418 km, 51.6° (Epoch: 22 April)

Date Brightness Start Highest point End Pass type
(mag) Time Alt. Az. Time Alt. Az. Time Alt. Az.
23 Apr -2.0 04:44:50 10° SSW 04:47:32 23° SE 04:50:15 10° E visible
24 Apr -1.5 03:57:02 12° S 03:58:41 16° SE 04:00:46 10° E visible
25 Apr -1.1 03:09:48 10° SE 03:09:49 10° SE 03:09:58 10° SE visible
25 Apr -3.1 04:42:40 10° SW 04:45:51 45° SSE 04:49:03 10° E visible
26 Apr -2.6 03:55:17 21° SSW 03:56:47 31° SSE 03:59:47 10° E visible
27 Apr -2.0 03:07:49 21° SE 03:07:49 21° SE 03:10:19 10° E visible
27 Apr -3.8 04:40:43 10° WSW 04:44:03 80° SSE 04:47:23 10° ENE visible
28 Apr -1.0 02:20:16 11° ESE 02:20:16 11° ESE 02:20:28 10° ESE visible
28 Apr -3.6 03:53:05 25° SW 03:54:47 59° SSE 03:58:04 10° ENE visible
29 Apr -3.2 03:05:26 41° SSE 03:05:29 41° SSE 03:08:39 10° E visible
29 Apr -3.6 04:38:45 10° W 04:42:05 73° N 04:45:25 10° ENE visible
30 Apr -1.7 02:17:41 20° ESE 02:17:41 20° ESE 02:19:06 10° E visible
30 Apr -3.8 03:50:30 20° WSW 03:52:38 87° NNW 03:55:59 10° ENE visible
01 May -3.9 03:02:40 59° SW 03:03:09 74° SSE 03:06:30 10° ENE visible
01 May -3.4 04:36:36 10° W 04:39:55 65° N 04:43:14 10° E visible
